Weather in Ozero Tagarskoye

Russia / Krasnoyarsk Krai     53°35′55″N   91°47′49″E
temp.,
°C
wind,
m/s
gust,
m/s
humid.,
%
clouds,
%
prec.,
mm/h
press.,
hPa
HPBL,
m
4 july, mon
mon401:00+12ssw337471 0.0 100767
04:00+10ssw22855 0.0 100811
07:00+14ssw23715 0.0 1009214
10:00+20sw23515 0.0 1007772
13:00+23wsw243812 0.0 10062304
16:00+25nw343329 0.0 10052492
19:00+23ne33441 0.0 1005348
22:00+16e33675 0.0 100520
5 july, tue
tue501:00+14ese22675 0.0 100511
04:00+12e22750 0.0 100411
07:00+15e14634 0.0 1003240
10:00+22e45435 0.0 1001837
13:00+26e33335 0.0 10001422
16:00+28n2230100 0.0 9981475
19:00+25nne2454100 0.0 997210
22:00+19ene2263100 0.0 99811
6 july, wed
wed601:00+18wsw101669100 0.3 1001717
04:00+14sw3691100 0.6 1003166
07:00+16s1184100 0.8 100471
10:00+19s2473100 0.1 1005568
13:00+24wsw7940100 0.3 10042527
16:00+24wnw793893 0.0 10042201
19:00+21w5104742 0.1 1006433
22:00+16wsw346682 0.0 100850
7 july, thu
thu701:00+13sw338293 0.0 100934
04:00+14ssw348178 0.1 1008108
07:00+15se1377100 0.1 1009153
10:00+20s2460100 0.6 1008532
13:00+19wsw101558100 1.9 10091272
16:00+20wsw11135199 0.0 10091457
19:00+18wsw696466 0.0 1009849
22:00+15wsw498084 0.1 1010244
8 july, fri
fri801:00+15sw5108799 0.2 1010331
04:00+13s229387 0.0 101031
07:00+15s127894 0.0 1010179
10:00+19s226686 0.0 1010608
13:00+24e125011 0.0 10081453
16:00+24ene224797 0.0 10061008
19:00+22ne36636 0.0 1006328
22:00+17ene2280100 0.0 100616